This is the latest recevied weather packets stored in our database for station/object DC4XK-10. If no packets are shown the sender has not sent any weather packets the latest 10 day(s).
| Time | Temp. | Humidity | Pressure | Rain* | Wind** | Luminosity | Snow |
|---|---|---|---|---|---|---|---|
| 1777766931 | 12.22° C | 83% | 1011.8 hPa | 0 mm | 0 m/s | - | - |
| 1777765132 | 11.67° C | 84% | 1012.1 hPa | 0 mm | 0 m/s | - | - |
| 1777763931 | 12.22° C | 82% | 1012.2 hPa | 0 mm | 0 m/s | - | - |
| 1777761533 | 12.78° C | 79% | 1012.2 hPa | 0 mm | 0 m/s | - | - |
| 1777760931 | 13.33° C | 77% | 1012.1 hPa | 0 mm | 0 m/s | - | - |
| 1777759734 | 14.44° C | 73% | 1012.4 hPa | 0 mm | 0 m/s | - | - |
| 1777759131 | 14.44° C | 71% | 1012.4 hPa | 0 mm | 0 m/s | - | - |
| 1777758530 | 15.56° C | 68% | 1012.5 hPa | 0 mm | 0 m/s | - | - |
| 1777757932 | 16.11° C | 66% | 1012.6 hPa | 0 mm | 0 m/s | - | - |
| 1777757331 | 16.11° C | 66% | 1012.8 hPa | 0 mm | 0 m/s | - | - |
| 1777756731 | 16.11° C | 65% | 1012.6 hPa | 0 mm | 0 m/s | - | - |
| 1777756130 | 16.67° C | 64% | 1012.9 hPa | 0 mm | 0 m/s | - | - |
| 1777754931 | 16.67° C | 66% | 1012.7 hPa | 0 mm | 0 m/s | - | - |
| 1777754331 | 16.67° C | 67% | 1012.7 hPa | 0 mm | 0 m/s | - | - |
| 1777753731 | 17.22° C | 66% | 1012.7 hPa | 0 mm | 0 m/s | - | - |
| 1777753131 | 17.22° C | 66% | 1012.8 hPa | 0 mm | 0 m/s | - | - |
| 1777752530 | 17.78° C | 64% | 1012.6 hPa | 0 mm | 0 m/s | - | - |
| 1777751931 | 18.33° C | 62% | 1012.8 hPa | 0 mm | 0 m/s | - | - |
| 1777751332 | 18.33° C | 60% | 1012.9 hPa | 0 mm | 0 m/s | - | - |
| 1777750730 | 18.89° C | 59% | 1012.6 hPa | 0 mm | 0 m/s | - | - |
| 1777750131 | 18.89° C | 57% | 1012.4 hPa | 0 mm | 0 m/s | - | - |
| 1777749532 | 19.44° C | 54% | 1012.4 hPa | 0 mm | 0.89 m/s, 226° | - | - |
| 1777748931 | 20.56° C | 51% | 1012.3 hPa | 0 mm | 0 m/s | - | - |
| 1777748332 | 21.11° C | 49% | 1012.4 hPa | 0 mm | 2.24 m/s, 273° | - | - |
| 1777747130 | 21.67° C | 50% | 1011.8 hPa | 0 mm | 0 m/s | - | - |
* Rain latest hour (hover to see other rain measurements)
** Current wind speed in m/s (hover to see current wind gust speed)